CUBEBUG-2 (LO-74)

Last updated on Mon Nov 03 2025 00:03:21 GMT+0000 (Coordinated Universal Time)

1 39440U 13066AA 25306.42330865 .00004761 00000+0 46634-3 0 9996 2 39440 97.8638 250.1810 0062220 59.2238 301.5085 14.91300176643165
UTC large
Height (km)
Speed (km/s)
/
Latitude / Longitude
Inclination (degrees)
Orbital Period (minutes)
Azimuth
Elevation
Range (km)
Doppler Factor

Next 0 passes for location: London (51.5072 / 0.1276)

Sorry there are no passes over London.